User: anonymous   Login
Location: Oshawa
(43.9000°N, 78.8670°W)
Time: 23:11:41
(UTC-05:00)
Language:

Altair - Orbit

View from above orbital plane
View from above orbital plane
View from above satellite
View from above satellite

Ground track
Ground track

The orbit data is extracted from the following two-line orbital elements,

1    50U 60009B   18055.44560925 -.00000070 +00000-0 +13896-3 0  9992
2    50 047.2291 220.7730 0113412 330.3411 029.0982 12.20102799567179
Epoch (UTC): 24 February 2018 10:41:40
Eccentricity: 0.0113412
inclination: 47.2291°
perigee height: 1501 km
apogee height: 1682 km
right ascension of ascending node: 220.7730°
argument of perigee: 330.3411°
revolutions per day: 12.20102799
mean anomaly at epoch: 29.0982°
orbit number at epoch: 56717

The dashed part of the orbit path shows where the satellite is in the earth's shadow,  

DLR